Hourly Data Report for October 19, 2014

All times are specified in Local Standard Time (LST). Add 1 hour to adjust for Daylight Saving Time where and when it is observed.

OTTAWA INTL A
ONTARIO

45°19'00.000" N
75°40'00.000" W
114.90 m
6106001
71628
YOW

Download Data

Hourly Data (October 2014)
Hourly Data Report for October 19, 2014
Temp Definition
°C
Dew Point Temp Definition
°C
Rel Hum Definition
%
Wind Dir Definition
10's deg

Wind Spd Definition
km/h
Visibility Definition
km
Stn Press Definition
kPa
Hmdx Definition


Wind Chill Definition


Weather Definition


TIME
00:00 Legend Double Dagger 3.8 0.0 76 30 18 24.1 99.65     LegendNANA
01:00 Legend Double Dagger 3.6 -0.1 77 30 19 24.1 99.71     Mostly Cloudy
02:00 Legend Double Dagger 3.7 -0.1 76 30 18 24.1 99.78     LegendNANA
03:00 Legend Double Dagger 3.5 -0.9 73 30 17 24.1 99.83     LegendNANA
04:00 Legend Double Dagger 2.6 -1.2 76 30 20 24.1 99.85     Mainly Clear
05:00 Legend Double Dagger 3.1 -1.1 74 30 26 24.1 99.91     LegendNANA
06:00
07:00 Legend Double Dagger 2.9 -0.6 78 30 22 24.1 100.03     Mainly Clear
08:00 Legend Double Dagger 3.5 -1.1 72 30 32 24.1 100.10     LegendNANA
09:00 Legend Double Dagger 4.8 -3.0 57 31 30 24.1 100.16     LegendNANA
10:00 Legend Double Dagger 4.4 -3.4 57 30 25 24.1 100.20     Mostly Cloudy
11:00 Legend Double Dagger 4.5 -4.5 52 30 27 24.1 100.22     LegendNANA
12:00 Legend Double Dagger 4.6 -3.0 58 32 24 24.1 100.19     LegendNANA
13:00 Legend Double Dagger 5.6 -3.7 51 29 23 24.1 100.19     Mostly Cloudy
14:00 Legend Double Dagger 5.5 -2.8 55 30 26 24.1 100.19     LegendNANA
15:00 Legend Double Dagger 5.1 -3.4 54 30 25 24.1 100.20     LegendNANA
16:00 Legend Double Dagger 5.1 -3.2 55 28 21 24.1 100.20     Mostly Cloudy
17:00 Legend Double Dagger 4.6 -3.7 55 28 23 24.1 100.23     LegendNANA
18:00 Legend Double Dagger 4.0 -3.5 58 26 16 24.1 100.27     LegendNANA
19:00 Legend Double Dagger 3.7 -3.4 60 25 17 24.1 100.30     Mostly Cloudy
20:00 Legend Double Dagger 3.2 -3.8 60 27 14 24.1 100.31     LegendNANA
21:00 Legend Double Dagger 2.5 -3.0 67 29 9 24.1 100.28     LegendNANA
22:00 Legend Double Dagger 1.3 -2.3 77 24 9 24.1 100.24     Mostly Cloudy
23:00 Legend Double Dagger 1.2 -2.6 76 25 7 24.1 100.21     LegendNANA

Notes on Data Quality.

Legend

  • E = Estimated
  • M = Missing
  • NA = Not Available
  • ‡ = Partner data that is not subject to review by the National Climate Archives
Date modified: